When you browse on this site, cookies collect data to enhance your experience and personalize the content and advertising you see.
Visit our Privacy Policy to learn more. By continuing to use the site, you agree to this use of cookies and data.
  • En España
  • Lista de países
  • Para 7 días
  • Temperatura del agua
  • El tiempo en el mapa
  • Informadores
  • user-avatar
    Iniciar sesión

    Tiempo cada hora Buenos Aires

    Hoy, 28 Mayo, Jueves

    Tiempo Temperatura Precipitaciones Viento Presión Humedad
    00:00 +16°C° 0 mm 3 mps 760 mmHg 76%
    01:00 +14°C° 0 mm 3 mps 760 mmHg 79%
    02:00 +14°C° 0 mm 3 mps 760 mmHg 81%
    03:00 +13°C° 0 mm 3 mps 760 mmHg 83%
    04:00 +13°C° 0 mm 3 mps 760 mmHg 84%
    05:00 +13°C° 0 mm 3 mps 760 mmHg 86%
    06:00 +13°C° 0 mm 3 mps 760 mmHg 85%
    07:00 +13°C° 0 mm 3 mps 760 mmHg 84%
    08:00 +14°C° 0 mm 2 mps 761 mmHg 84%
    09:00 +16°C° 0 mm 2 mps 761 mmHg 75%
    10:00 +18°C° 0 mm 2 mps 761 mmHg 67%
    11:00 +20°C° 0 mm 1 mps 761 mmHg 59%
    12:00 +21°C° 0 mm 1 mps 760 mmHg 56%
    13:00 +22°C° 0 mm 1 mps 760 mmHg 53%
    14:00 +23°C° 0 mm 1 mps 759 mmHg 50%
    15:00 +21°C° 0 mm 2 mps 759 mmHg 54%
    16:00 +20°C° 0 mm 2 mps 759 mmHg 58%
    17:00 +19°C° 0 mm 3 mps 759 mmHg 63%
    18:00 +18°C° 0 mm 3 mps 759 mmHg 67%
    19:00 +18°C° 0 mm 3 mps 759 mmHg 70%
    20:00 +17°C° 0 mm 3 mps 759 mmHg 74%
    21:00 +17°C° 0 mm 3 mps 759 mmHg 76%
    22:00 +17°C° 0 mm 3 mps 759 mmHg 77%
    23:00 +16°C° 0 mm 2 mps 759 mmHg 79%

    Mañana, 29 Mayo, Viernes

    Tiempo Temperatura Precipitaciones Viento Presión Humedad
    00:00 +16°C° 0 mm 2 mps 759 mmHg 81%
    01:00 +16°C° 0 mm 1 mps 759 mmHg 83%
    02:00 +15°C° 0 mm 1 mps 759 mmHg 85%
    03:00 +15°C° 0 mm 1 mps 759 mmHg 86%
    04:00 +15°C° 0 mm 1 mps 759 mmHg 88%
    05:00 +15°C° 0 mm 1 mps 759 mmHg 89%
    06:00 +15°C° 0 mm 1 mps 759 mmHg 89%
    07:00 +15°C° 0 mm 2 mps 759 mmHg 89%
    08:00 +15°C° 0 mm 2 mps 760 mmHg 88%
    09:00 +17°C° 0 mm 2 mps 760 mmHg 82%
    10:00 +18°C° 0 mm 2 mps 760 mmHg 76%
    11:00 +19°C° 0 mm 2 mps 760 mmHg 70%
    12:00 +20°C° 0 mm 2 mps 759 mmHg 67%
    13:00 +21°C° 0 mm 1 mps 758 mmHg 64%
    14:00 +22°C° 0 mm 1 mps 758 mmHg 61%
    15:00 +21°C° 0 mm 1 mps 758 mmHg 65%
    16:00 +19°C° 0 mm 2 mps 758 mmHg 69%
    17:00 +19°C° 0 mm 2 mps 758 mmHg 72%
    18:00 +18°C° 0 mm 2 mps 758 mmHg 75%
    19:00 +18°C° 0 mm 3 mps 758 mmHg 77%
    20:00 +17°C° 0 mm 3 mps 758 mmHg 79%
    21:00 +17°C° 0 mm 3 mps 759 mmHg 81%
    22:00 +17°C° 0 mm 3 mps 759 mmHg 83%
    23:00 +17°C° 0 mm 3 mps 759 mmHg 85%

    Pasado mañana, 30 Mayo, Sábado

    Tiempo Temperatura Precipitaciones Viento Presión Humedad
    00:00 +17°C° 0 mm 2 mps 759 mmHg 86%
    01:00 +16°C° 0 mm 2 mps 759 mmHg 87%
    02:00 +16°C° 0 mm 1 mps 759 mmHg 88%
    03:00 +16°C° 0 mm 1 mps 759 mmHg 89%
    04:00 +16°C° 0 mm 1 mps 758 mmHg 89%
    05:00 +16°C° 0 mm 1 mps 758 mmHg 90%
    06:00 +16°C° 0 mm 1 mps 758 mmHg 89%
    07:00 +16°C° 0 mm 1 mps 758 mmHg 88%
    08:00 +16°C° 0 mm 1 mps 759 mmHg 87%
    09:00 +19°C° 0 mm 1 mps 759 mmHg 81%
    10:00 +19°C° 0 mm 2 mps 759 mmHg 74%
    11:00 +20°C° 0 mm 2 mps 759 mmHg 67%
    12:00 +22°C° 0 mm 1 mps 758 mmHg 66%
    13:00 +22°C° 0 mm 1 mps 758 mmHg 64%
    14:00 +22°C° 0 mm 1 mps 757 mmHg 62%
    15:00 +22°C° 0 mm 1 mps 757 mmHg 65%
    16:00 +21°C° 0 mm 1 mps 757 mmHg 69%
    17:00 +21°C° 0 mm 1 mps 757 mmHg 72%
    18:00 +19°C° 0.4 mm 2 mps 757 mmHg 76%
    19:00 +18°C° 0.4 mm 3 mps 758 mmHg 80%
    20:00 +16°C° 0.4 mm 5 mps 758 mmHg 85%
    21:00 +15°C° 0.9 mm 5 mps 758 mmHg 82%
    22:00 +14°C° 0.9 mm 6 mps 758 mmHg 80%
    23:00 +13°C° 0.9 mm 6 mps 758 mmHg 78%

    31 Mayo, Domingo

    Tiempo Temperatura Precipitaciones Viento Presión Humedad
    00:00 +11°C° 0.4 mm 6 mps 758 mmHg 76%
    01:00 +11°C° 0.4 mm 7 mps 759 mmHg 75%
    02:00 +10°C° 0.4 mm 7 mps 759 mmHg 73%
    03:00 +10°C° 0 mm 7 mps 759 mmHg 72%
    04:00 +9°C° 0 mm 7 mps 759 mmHg 70%
    05:00 +9°C° 0 mm 8 mps 759 mmHg 68%
    06:00 +9°C° 0 mm 8 mps 759 mmHg 67%
    07:00 +9°C° 0 mm 8 mps 759 mmHg 66%
    08:00 +8°C° 0 mm 9 mps 759 mmHg 65%
    09:00 +8°C° 0 mm 9 mps 759 mmHg 63%
    10:00 +10°C° 0 mm 9 mps 759 mmHg 62%
    11:00 +10°C° 0 mm 9 mps 758 mmHg 60%
    12:00 +11°C° 0 mm 9 mps 758 mmHg 58%
    13:00 +11°C° 0 mm 9 mps 758 mmHg 56%
    14:00 +12°C° 0 mm 9 mps 758 mmHg 54%
    15:00 +11°C° 0 mm 9 mps 758 mmHg 57%
    16:00 +10°C° 0 mm 9 mps 758 mmHg 61%
    17:00 +10°C° 0 mm 9 mps 759 mmHg 64%
    18:00 +10°C° 0 mm 9 mps 759 mmHg 64%
    19:00 +10°C° 0 mm 9 mps 759 mmHg 63%
    20:00 +10°C° 0 mm 9 mps 760 mmHg 63%
    21:00 +10°C° 0 mm 8 mps 760 mmHg 63%
    22:00 +9°C° 0 mm 8 mps 760 mmHg 63%
    23:00 +9°C° 0 mm 8 mps 760 mmHg 63%

    1 Junio, Lunes

    Tiempo Temperatura Precipitaciones Viento Presión Humedad
    00:00 +9°C° 0 mm 8 mps 760 mmHg 66%
    01:00 +8°C° 0 mm 7 mps 760 mmHg 68%
    02:00 +8°C° 0 mm 7 mps 761 mmHg 70%
    03:00 +6°C° 0 mm 7 mps 761 mmHg 71%
    04:00 +6°C° 0 mm 7 mps 760 mmHg 72%
    05:00 +6°C° 0 mm 7 mps 760 mmHg 74%
    06:00 +6°C° 0 mm 7 mps 761 mmHg 74%
    07:00 +6°C° 0 mm 7 mps 761 mmHg 75%
    08:00 +6°C° 0 mm 7 mps 761 mmHg 76%
    09:00 +8°C° 0 mm 7 mps 762 mmHg 71%
    10:00 +9°C° 0 mm 6 mps 762 mmHg 65%
    11:00 +10°C° 0 mm 6 mps 762 mmHg 60%
    12:00 +11°C° 0 mm 6 mps 762 mmHg 57%
    13:00 +13°C° 0 mm 6 mps 761 mmHg 54%
    14:00 +13°C° 0 mm 5 mps 761 mmHg 52%
    15:00 +13°C° 0 mm 5 mps 761 mmHg 53%
    16:00 +12°C° 0 mm 5 mps 761 mmHg 54%
    17:00 +12°C° 0 mm 5 mps 761 mmHg 55%
    18:00 +10°C° 0 mm 5 mps 762 mmHg 55%
    19:00 +11°C° 0 mm 4 mps 762 mmHg 56%
    20:00 +10°C° 0 mm 4 mps 762 mmHg 57%
    21:00 +10°C° 0 mm 4 mps 762 mmHg 59%
    22:00 +10°C° 0 mm 3 mps 762 mmHg 60%
    23:00 +9°C° 0 mm 2 mps 762 mmHg 62%

    2 Junio, Martes

    Tiempo Temperatura Precipitaciones Viento Presión Humedad
    00:00 +9°C° 0 mm 2 mps 762 mmHg 64%
    01:00 +8°C° 0 mm 2 mps 762 mmHg 65%
    02:00 +8°C° 0 mm 2 mps 762 mmHg 67%
    03:00 +8°C° 0 mm 2 mps 762 mmHg 68%
    04:00 +8°C° 0 mm 2 mps 762 mmHg 69%
    05:00 +7°C° 0 mm 2 mps 762 mmHg 71%
    06:00 +8°C° 0 mm 2 mps 762 mmHg 69%
    07:00 +8°C° 0 mm 2 mps 762 mmHg 68%
    08:00 +8°C° 0 mm 2 mps 763 mmHg 67%
    09:00 +9°C° 0 mm 2 mps 763 mmHg 60%
    10:00 +12°C° 0 mm 2 mps 763 mmHg 53%
    11:00 +13°C° 0 mm 2 mps 763 mmHg 46%
    12:00 +14°C° 0 mm 2 mps 762 mmHg 44%
    13:00 +15°C° 0 mm 2 mps 762 mmHg 41%
    14:00 +16°C° 0 mm 1 mps 761 mmHg 39%
    15:00 +15°C° 0 mm 1 mps 762 mmHg 42%
    16:00 +14°C° 0 mm 1 mps 762 mmHg 45%
    17:00 +14°C° 0 mm 1 mps 762 mmHg 49%
    18:00 +13°C° 0 mm 1 mps 762 mmHg 50%
    19:00 +13°C° 0 mm 1 mps 763 mmHg 52%
    20:00 +12°C° 0 mm 1 mps 763 mmHg 54%
    21:00 +12°C° 0 mm 1 mps 764 mmHg 55%
    22:00 +12°C° 0 mm 1 mps 764 mmHg 55%
    23:00 +10°C° 0 mm 2 mps 764 mmHg 56%
    Mostrar más